sat.trackr.live / text

‹ back to catalog

2025-292E

NORAD 66997 · 2025-292E

PAYLOAD ACTIVE UNKNOWN

§ Identity

Operator
Country
PRC
Launch date
2025-12-10
Launch site
JSC
Launch vehicle
Mass (kg)
RCS (m²)

External: N2YO · Heavens-Above · Gunter

§ Orbital elements

Epoch: 2026-05-25T02:38:05.229600Z

Period
95.61 min
Inclination
97.6330°
Eccentricity
0.0016023
Mean motion
15.06190958 rev/d
Perigee alt
536.8 km
Apogee alt
558.9 km
Semi-major
6,926.0 km
B*
2.1641e-4
RAAN
221.1144°
Arg perigee
83.3062°
Mean anomaly
276.9988°
Rev number
2,496

§ Raw data

2025-292E1 66997U 25292E   26145.10978275  .00003116  00000+0  21641-3 0  99912 66997  97.6330 221.1144 0016023  83.3062 276.9988 15.06190958 24960

JSON: /api/v1/satellites/66997 · /tle

For live sub-satellite position, see the globe view (requires WebGL).

§ Visibility from observer

Set your observer location to see the next 7 days of passes ≥ 10°. The values pass through the URL so the page stays shareable.

No JS? Fill the form by hand. The geolocation button needs JavaScript.